Location: Gollag?dem
(16.8053°N, 80.8024°E)
Time: 10:15:01
(UTC+00:00)

Cosmos-2242 - Pass Details

Date: 13 August 2020
Orbit: 590 x 618 km, 82.5° (Epoch: 19 September)

Event Time Altitude Azimuth Distance (km) Brightness Sun altitude
Rises 23:34:31 0° 191° (S) 2,852 6.2 -11.3°
Reaches altitude 10° 23:36:44 10° 195° (SSW) 1,954 5.3 -10.8°
Maximum altitude 23:41:01 61° 275° (W) 696 3.0 -9.8°
Drops below altitude 10° 23:45:20 10° 356° (N) 1,972 5.8 -8.8°
Sets 23:47:35 0° 359° (N) 2,880 6.7 -8.3°
